PROITERES

Satellite information

Favourite Embed

Satellite Type and Status

PAYLOADIN ORBIT

Key statistics

Satellite PROITERES at a glance.

Uptime

4683

Days in orbit

Revolutions

≈ 14.8

Per day

Orbit

SSO

Sun Synchronous Orbit

Inclination

98.2

Latest

Satellite identification and parameters

Extended collection of information and parameters for PROITERES.

Object identification

Identified? True

Debris? False

Object name: PROITERES

International designator: 2012-047B

Object number (NORAD): 38756

Object ID (CCSDS): 38756

Country: JAPAN (JPN)

Current information (Y/N): Y

RCS size: SMALL

Orbital parameters

Period: 97.206 minutes

Inclination: 98.2413 deg

SMA: 7003.075 km

Apoapsis: 633.587 km

Periapsis: 616.292 km

RAAN: 93.7183 deg

Eccentricy: 0.0012348

Argument of periapsis: 90.9523 deg

Mean anomaly: 269.3104 deg

Mean motion: 14.81390716 rev/day

Mean motion (dot): 0.00000783 rev/day2

B* drag term: 0.00010728 1/REarth

Two-line elements (TLE)

Creation date: July 5, 2025, 10:56 p.m.

Reference frame: TEME

Reference center: EARTH

Epoch: July 5, 2025, 7:49 p.m. UTC

TLE line 0: 0 PROITERES

TLE line 1: 1 38756U 12047B 25186.82616172 .00000783 00000-0 10728-3 0 9997

TLE line 2: 2 38756 98.2413 93.7183 0012348 90.9523 269.3104 14.81390716691039

Live tracking on map

Real-time ground track for satellite PROITERES.

In-orbit conjunctions

There are no conjunctions computed for PROITERES, at the moment. Check back to stay up to date, as we update our databases every day.

Go to all conjunctions

Associated space launch

PROITERES was lifted into orbit during the mission ‘PSLV-CA | SPOT 6 & PROITERES’, on board a PSLV space rocket.

The launch took place on Sept. 9, 2012, 4:23 a.m. from Satish Dhawan Space Centre First Launch Pad.

For more information about the launch, click the button.

Launch to space PSLV-CA | SPOT 6 & PROITERES
PSLV-CA | SPOT 6 & PROITERES

Agency: N/A

Status: Launch Successful

Launch date: Sept. 9, 2012, 4:23 a.m. UTC

Rocket: PSLV

Launch pad: Satish Dhawan Space Centre First Launch Pad

Location: Satish Dhawan Space Centre, India

...

Latest news about this satellite

There are no fresh news available about this satellite. Check back as we update our databases every day.


Newsletter sign-up

Weekly statistics, charts and insights to help you stay on top of the space industry.